User: anonymous   Login
Location: Nelson
(41.2830°S, 173.2830°E)
Time: 19:59:06
(UTC+13:00)
Language:

Meteor 2-13 Rocket - Orbit

View from above orbital plane
View from above orbital plane
View from above satellite
View from above satellite

Ground track
Ground track

The orbit data is extracted from the following two-line orbital elements,

1 16409U 85119B   19286.85050292 +.00000008 +00000-0 -65650-5 0  9997
2 16409 082.5397 043.8980 0015390 159.3925 200.7859 13.84808674707992
Epoch (UTC): 13 October 2019 20:24:43
Eccentricity: 0.0015390
inclination: 82.5397°
perigee height: 935 km
apogee height: 958 km
right ascension of ascending node: 43.8980°
argument of perigee: 159.3925°
revolutions per day: 13.84808674
mean anomaly at epoch: 200.7859°
orbit number at epoch: 70799

The dashed part of the orbit path shows where the satellite is in the earth's shadow,  

DLR